This is the latest recevied weather packets stored in our database for station/object N7TUG-8. If no packets are shown the sender has not sent any weather packets the latest 10 day(s).
| Time | Temp. | Humidity | Pressure | Rain* | Wind** | Luminosity | Snow |
|---|---|---|---|---|---|---|---|
| 1777372522 | 10.56° C | 81% | 1019.5 hPa | 0 mm | 2.24 m/s, 125° | - | - |
| 1777371827 | 10.56° C | 82% | 1019.4 hPa | 0 mm | 3.13 m/s, 124° | - | - |
| 1777371626 | 10.56° C | 82% | 1019.4 hPa | 0 mm | 3.13 m/s, 124° | - | - |
| 1777370992 | 10° C | 82% | 1019.4 hPa | 0 mm | 3.58 m/s, 125° | - | - |
| 1777370731 | 10° C | 82% | 1019.4 hPa | 0 mm | 3.58 m/s, 125° | - | - |
| 1777369811 | 10° C | 81% | 1019.5 hPa | 0 mm | 2.68 m/s, 120° | - | - |
| 1777369467 | 10° C | 82% | 1019.5 hPa | 0 mm | 3.13 m/s, 122° | - | - |
| 1777368966 | 10° C | 82% | 1019.5 hPa | 0 mm | 3.58 m/s, 120° | - | - |
| 1777368661 | 10° C | 82% | 1019.6 hPa | 0 mm | 3.58 m/s, 121° | - | - |
| 1777368091 | 10° C | 81% | 1019.6 hPa | 0 mm | 3.58 m/s, 124° | - | - |
| 1777367902 | 10° C | 82% | 1019.7 hPa | 0 mm | 3.13 m/s, 121° | - | - |
| 1777367261 | 10.56° C | 81% | 1019.7 hPa | 0 mm | 3.58 m/s, 120° | - | - |
| 1777366496 | 10.56° C | 82% | 1019.8 hPa | 0 mm | 3.13 m/s, 120° | - | - |
| 1777365606 | 10.56° C | 82% | 1019.7 hPa | 0 mm | 2.68 m/s, 122° | - | - |
| 1777365322 | 10.56° C | 82% | 1019.7 hPa | 0 mm | 2.68 m/s, 122° | - | - |
| 1777364691 | 10.56° C | 82% | 1019.7 hPa | 0 mm | 2.68 m/s, 124° | - | - |
| 1777364502 | 10.56° C | 82% | 1019.7 hPa | 0 mm | 2.68 m/s, 124° | - | - |
| 1777363800 | 10.56° C | 82% | 1019.5 hPa | 0 mm | 2.24 m/s, 126° | - | - |
| 1777363727 | 10.56° C | 82% | 1019.5 hPa | 0 mm | 2.24 m/s, 126° | - | - |
| 1777362982 | 10.56° C | 82% | 1019.5 hPa | 0 mm | 2.24 m/s, 125° | - | - |
| 1777362133 | 10.56° C | 82% | 1019.3 hPa | 0 mm | 2.68 m/s, 126° | - | - |
| 1777362101 | 10.56° C | 82% | 1019.3 hPa | 0 mm | 2.68 m/s, 126° | - | - |
| 1777361417 | 10.56° C | 82% | 1019.3 hPa | 0 mm | 2.68 m/s, 124° | - | - |
| 1777361197 | 11.11° C | 81% | 1019.2 hPa | 0 mm | 2.68 m/s, 124° | - | - |
| 1777360603 | 11.11° C | 81% | 1019.2 hPa | 0 mm | 2.68 m/s, 128° | - | - |
* Rain latest hour (hover to see other rain measurements)
** Current wind speed in m/s (hover to see current wind gust speed)